Regional Weather Roundup
Issued by NWS

Home | Current Version | Previous Version | Graphics & Text | Print | Product List | Glossary On
Versions: 1 2 3 4 5 6 7 8 9 10 11 12 13 14 15 16 17 18 19 20 21 22 23 24 25 26 27 28 29 30 31 32 33 34 35 36 37 38 39 40 41 42 43 44 45 46 47 48 49 50
697
ASUS43 KBIS 190702
RWRND

NORTH DAKOTA REGIONAL WEATHER ROUNDUP
NATIONAL WEATHER SERVICE BISMARCK ND
200 AM CDT THU OCT 19 2017

NOTE: "FAIR" INDICATES FEW OR NO CLOUDS BELOW 12,000 FEET WITH NO
SIGNIFICANT WEATHER AND/OR OBSTRUCTIONS TO VISIBILITY.


NDZ001>003-009>011-017-190800-
NORTHWEST NORTH DAKOTA

CITY           SKY/WX    TMP DP  RH WIND       PRES   REMARKS
WILLISTON      CLOUDY    39  27  62 SW7       29.79F
MINOT          CLOUDY    39  27  62 S7        29.83F
MINOT AFB      CLOUDY    35  25  65 S7        29.82F
$$

NDZ018>021-031>035-040>046-190800-
SOUTHWEST NORTH DAKOTA

CITY           SKY/WX    TMP DP  RH WIND       PRES   REMARKS
BISMARCK       CLOUDY    38  25  59 NE8       29.90F
DICKINSON      CLOUDY    40  26  57 S12       29.82F
GARRISON         N/A     40  32  73 CALM      29.86F
HETTINGER ARPT CLOUDY    39  24  55 SE3       29.88F
$$

NDZ004>008-012>016-024-026-027-054-190800-
NORTHEAST NORTH DAKOTA

CITY           SKY/WX    TMP DP  RH WIND       PRES   REMARKS
GRAND FORKS    CLEAR     44  25  47 SW8       29.90R
GRND FRKS AFB  CLEAR     42  24  47 SW8       29.91R
DEVILS LAKE    CLOUDY    43  30  60 SW5       29.90S
$$

NDZ022-023-025-028>030-036>039-047>053-190800-
SOUTHEAST NORTH DAKOTA

CITY           SKY/WX    TMP DP  RH WIND       PRES   REMARKS
FARGO          CLOUDY    39  28  64 S5        29.95S
JAMESTOWN      CLOUDY    35  26  69 CALM      29.93F
$$





USA.gov is the U.S. government's official web portal to all federal, state and local government web resources and services.